Location: Unspecified
(42.3650°N, 71.1030°W)
Time: 16:33:02
(UTC+00:00)

Meteor 1-27 Rocket - Pass Details

Date: 02 March 2024
Orbit: 830 x 909 km, 81.3° (Epoch: 18 April)

Event Time Altitude Azimuth Distance (km) Brightness Sun altitude
Rises 23:15:17 0° 357° (N) 3,543 7.0 -8.0°
Reaches altitude 10° 23:17:59 10° 6° (N) 2,592 6.2 -8.5°
Maximum altitude 23:23:24 36° 72° (ENE) 1,387 4.4 -9.5°
Drops below altitude 10° 23:28:41 10° 138° (SE) 2,538 5.8 -10.5°
Sets 23:31:18 0° 147° (SSE) 3,460 6.6 -11.0°
